Regional Weather Roundup
Issued by NWS

Home | Current Version | Previous Version | Graphics & Text | Print | Product List | Glossary On
Versions: 1 2 3 4 5 6 7 8 9 10 11 12 13 14 15 16 17 18 19 20 21 22 23 24 25 26 27
000
ASUS45 KBOU 252307
RWRCO

WEATHER ROUNDUP FOR COLORADO
NATIONAL WEATHER SERVICE DENVER/BOULDER CO
500 PM MDT THU AUG 25 2016

NOTE: "FAIR" INDICATES FEW OR NO CLOUDS BELOW 12000 FEET WITH NO
SIGNIFICANT WEATHER AND/OR OBSTRUCTIONS TO VISIBILITY.

COZ001>005-013-030-031-260000-
...NORTHWEST COLORADO...

CITY           SKY/WX    TMP DP  RH WIND       PRES   REMARKS
CRAIG          FAIR      70  28  21 W12       30.18S
HAYDEN         FAIR      70  28  21 W12       30.19F
MEEKER         FAIR      68  37  32 SE8       30.18F
MOUNT WERNER   NOT AVBL
STEAMBOAT SPGS FAIR      70  33  25 SW8       30.21S
WALDEN         FAIR      61  28  29 SW12G17   30.28F
$$

COZ006>008-011-260000-
...WEST CENTRAL VALLEYS...

CITY           SKY/WX    TMP DP  RH WIND       PRES   REMARKS
GRAND JUNCTION PTSUNNY   74  42  31 S14       30.07R
MONTROSE       FAIR      73  43  33 S18G29    30.11F
EAGLE          MOSUNNY   72  34  25 CALM      30.19F
RIFLE          FAIR      72  37  28 NW10G21   30.14R
DELTA          NOT AVBL
NUCLA          FAIR      70  34  26 NW17G24   30.17R
$$

COZ017>023-064>068-260000-
...SOUTHWEST COLORADO...

CITY           SKY/WX    TMP DP  RH WIND       PRES   REMARKS
DURANGO        FAIR      71  43  36 NE9       30.21F
CORTEZ         FAIR      79  40  24 SW12      30.12F
PAGOSA SPRINGS FAIR      62  41  47 NE8       30.31F
TELLURIDE      PTSUNNY   63  40  44 CALM      30.34F
WOLF CREEK PAS FAIR      43  36  75 S3        30.59F
$$

COZ009-010-012-014-032>034-037-058>063-260000-
...CENTRAL COLORADO...

CITY           SKY/WX    TMP DP  RH WIND       PRES   REMARKS
ASPEN          LGT RAIN  62  39  42 W5        30.25F
BUENA VISTA    FAIR      59  39  47 S14G22    30.32S
COPPER MTN     FAIR      52  32  46 S7        30.53S
BERTHOUD PASS  PTSUNNY   37  25  60 SE6       30.55S HAZE
COTTONWOOD PAS FAIR      55  34  44 E14G20    30.42F
GUNNISON       FAIR      63  37  39 NW6       30.31F
KREMMLING      FAIR      64  36  34 E9        30.27F
LEADVILLE      FAIR      53  36  52 S7        30.40F
MONARCH PASS   FAIR      43  36  75 SW13      30.64F
SALIDA         FAIR      58  46  64 SE10      30.38F
SUNLIGHT       CLOUDY    50  37  62 CALM      30.47F
WILKERSON PASS FAIR      43  36  75 CALM      30.54F
$$

COZ069>075-260000-
...SAN LUIS VALLEY/SANGRE DE CRISTO MOUNTAINS...

CITY           SKY/WX    TMP DP  RH WIND       PRES   REMARKS
ALAMOSA        PTSUNNY   67  37  33 NW13G20   30.32F
LA VETA PASS   FAIR      52  46  82 NE8       30.46F
SAGUACHE       FAIR      57  45  62 CALM      30.35F
$$

COZ035-036-038>040-260000-
...NORTHERN COLORADO FRONT RANGE...

CITY           SKY/WX    TMP DP  RH WIND       PRES   REMARKS
DENVER INTL AP LGT RAIN  56  51  84 NW12      30.27R
DMNS CITY PARK   N/A     58  50  74 E7G16     30.23F
AURORA         LGT RAIN  54  52  95 NE6       30.28F
FRONT RANGE AP CLOUDY    57  54  88 NW13G20   30.29R
ERIE MUNI ARPT FAIR      65  48  54 E12       30.22F
BOULDER MUN AP FAIR      63  48  59 SE7       30.22F
CENTENNIAL     LGT RAIN  58  50  75 NE7       30.28S
BROOMFIELD     PTSUNNY   61  52  72 CALM      30.26F
FORT COLLINS   FAIR      66  46  48 S9        30.20F
LONGMONT       FAIR      65  51  60 S8        30.23F
$$

COZ041-046-047-076>085-087-088-260000-
...PIKES PEAK/PALMER DIVIDE AND SOUTHERN FOOTHILLS...

CITY           SKY/WX    TMP DP  RH WIND       PRES   REMARKS
COLO. SPRINGS  CLOUDY    58  44  60 N18G29    30.30R
A. F. ACADEMY  CLOUDY    53  47  81 N5        30.31F
SCHRIEVER AFB  NOT AVBL
ELLICOTT       PTSUNNY  N/A N/A N/A VRB3      30.26
FALCON         CLOUDY    51  46  81 NW14G20   30.36R
FORT CARSON    PTSUNNY   61  43  52 NW17G26   30.25R
LIMON          FAIR      72  41  32 SE15      30.22R
MONUMENT HILL  TSTM      46  45  93 NW3       30.38F
TRINIDAD       FAIR      71  45  39 SE12      30.21R
$$

COZ042>045-048>051-090-091-260000-
...NORTHEAST COLORADO...

CITY           SKY/WX    TMP DP  RH WIND       PRES   REMARKS
GREELEY ARPT   PTSUNNY   61  50  67 SE15G21   30.19F
AKRON          FAIR      73  40  30 SE12      30.20R
BURLINGTON     FAIR      74  44  34 SE14G20   30.17F
WRAY           NOT AVBL
STERLING       FAIR      75  43  31 S5        30.17S
HOLYOKE        FAIR      79  43  27 E8G16     30.17F
FORT MORGAN    PTSUNNY   72  38  28 E7        30.19S
$$

COZ086-089-092>099-260000-
...SOUTHEAST COLORADO...

CITY           SKY/WX    TMP DP  RH WIND       PRES   REMARKS
PUEBLO         FAIR      78  43  28 E8        30.16R
LA JUNTA       FAIR      76  54  46 E17       30.13F
LAMAR          FAIR      73  55  53 SE9       30.12F
SPRINGFIELD      N/A     69  58  67 E9        30.16S
$$




USA.gov is the U.S. government's official web portal to all federal, state and local government web resources and services.